This is the latest recevied weather packets stored in our database for station/object K7SPS-10. If no packets are shown the sender has not sent any weather packets the latest 10 day(s).
| Time | Temp. | Humidity | Pressure | Rain* | Wind** | Luminosity | Snow |
|---|---|---|---|---|---|---|---|
| 1777529274 | 8.89° C | 67% | 1020.5 hPa | 0 mm | - | 0 W/m² | - |
| 1777528969 | 8.89° C | 67% | 1020.6 hPa | 0 mm | - | 0 W/m² | - |
| 1777528665 | 9.44° C | 66% | 1020.6 hPa | 0 mm | - | 0 W/m² | - |
| 1777528363 | 9.44° C | 67% | 1020.4 hPa | 0 mm | - | 0 W/m² | - |
| 1777528061 | 9.44° C | 66% | 1020.5 hPa | 0 mm | - | 0 W/m² | - |
| 1777527758 | 10° C | 65% | 1020.5 hPa | 0 mm | - | 0 W/m² | - |
| 1777527454 | 10.56° C | 63% | 1020.2 hPa | 0 mm | - | 0 W/m² | - |
| 1777527154 | 10.56° C | 63% | 1020.5 hPa | 0 mm | - | 0 W/m² | - |
| 1777526851 | 10.56° C | 64% | 1020.4 hPa | 0 mm | - | 0 W/m² | - |
| 1777526545 | 10.56° C | 64% | 1020.4 hPa | 0 mm | - | 0 W/m² | - |
| 1777526240 | 10° C | 64% | 1020.5 hPa | 0 mm | - | 0 W/m² | - |
| 1777525936 | 10.56° C | 62% | 1020.4 hPa | 0 mm | - | 0 W/m² | - |
| 1777525634 | 10.56° C | 60% | 1020.5 hPa | 0 mm | - | 0 W/m² | - |
| 1777525331 | 11.11° C | 60% | 1020.4 hPa | 0 mm | - | 0 W/m² | - |
| 1777525027 | 11.11° C | 59% | 1020.1 hPa | 0 mm | - | 0 W/m² | - |
| 1777524724 | 11.11° C | 59% | 1020.5 hPa | 0 mm | - | 0 W/m² | - |
| 1777524422 | 11.67° C | 59% | 1020.4 hPa | 0 mm | - | 0 W/m² | - |
| 1777524117 | 11.67° C | 58% | 1020.4 hPa | 0 mm | - | 0 W/m² | - |
| 1777523815 | 12.78° C | 55% | 1020.4 hPa | 0 mm | - | 0 W/m² | - |
| 1777523511 | 12.78° C | 55% | 1020.1 hPa | 0 mm | - | 0 W/m² | - |
| 1777523208 | 13.33° C | 56% | 1020.2 hPa | 0 mm | - | 0 W/m² | - |
| 1777522903 | 12.22° C | 57% | 1020.1 hPa | 0 mm | - | 0 W/m² | - |
| 1777522601 | 12.22° C | 58% | 1020.2 hPa | 0 mm | - | 0 W/m² | - |
| 1777522297 | 12.78° C | 55% | 1020 hPa | 0 mm | - | 0 W/m² | - |
| 1777521994 | 13.33° C | 54% | 1020.1 hPa | 0 mm | - | 0 W/m² | - |
* Rain latest hour (hover to see other rain measurements)
** Current wind speed in m/s (hover to see current wind gust speed)